Location: Balsareny
(41.8670°N, 1.8830°E)
Time: 11:25:24
(UTC+01:00)

Envisat - Pass Details

Date: 01 December 2021
Orbit: 764 x 766 km, 98.2° (Epoch: 15 January)

Event Time Altitude Azimuth Distance (km) Brightness Sun altitude
Rises 17:59:02 0° 198° (SSW) 3,217 6.9 -7.0°
Reaches altitude 10° 18:01:44 10° 212° (SSW) 2,296 6.4 -7.4°
Maximum altitude 18:05:49 25° 266° (W) 1,529 5.6 -8.1°
Drops below altitude 10° 18:09:57 10° 320° (NW) 2,310 5.7 -8.8°
Sets 18:12:41 0° 334° (NNW) 3,241 6.3 -9.3°
